Wetbulb
58.50 60.67 61.85 62.07 59.46 57.69 55.74 55.35 54.27 53.43 52.93 50.65 48.84 48.12 47.89 48.16 47.89 48.47 49.67 49.59 49.67 50.00 48.80 48.20 47.86 48.19 47.53 46.93 47.14 46.59 45.42 45.17 44.68 44.12 45.00 47.31 48.15 48.04 47.52 47.37 47.08 47.81 49.42
57.56 58.37 59.42 60.86 59.17 57.35 55.86 54.57 54.64 52.59 52.71 52.41 51.30 51.05 52.58 52.05 51.51 50.54 49.26 49.74 49.58 49.81 49.02 48.09 47.44 47.49 47.47 47.38 47.26 46.61 45.71 45.57 44.49 42.55 42.64 43.00 45.58 44.84 46.88 47.06 47.61 45.75 47.31
57.14 58.36 58.26 57.19 58.21 57.59 56.32 55.02 54.80 53.70 53.87 53.90 53.23 52.92 51.92 51.52 50.35 48.40 48.42 49.40 49.70 50.01 48.57 47.95 47.74 47.36 47.43 47.36 47.24 46.92 45.67 44.63 45.07 44.01 42.11 39.60 40.06 40.65 44.55 45.19 45.01 44.92 44.63
56.88 57.36 57.03 56.56 57.11 57.10 56.58 56.56 55.71 54.49 54.23 53.97 53.37 52.57 50.91 49.98 50.43 48.48 48.75 49.19 49.64 49.58 49.60 48.82 47.98 47.64 47.72 47.29 47.66 48.46 46.60 45.65 44.19 45.20 46.87 43.88 42.36 38.87 39.33 42.78 43.79 44.76 45.18
55.76 56.60 57.31 58.09 57.98 57.29 55.89 55.75 54.72 54.04 54.07 53.74 53.75 52.86 51.85 50.36 50.97 48.66 48.46 48.38 48.38 49.04 49.38 48.96 47.65 47.34 47.62 47.22 47.87 47.47 47.39 46.29 45.22 44.63 44.36 43.88 43.34 42.30 40.35 38.14 40.84 43.18 44.20
55.92 56.78 59.11 59.01 57.79 56.53 55.59 55.33 54.11 53.32 53.46 53.34 53.10 53.02 52.40 51.70 50.25 49.11 47.81 47.77 47.30 47.44 48.28 48.37 47.18 47.12 47.16 47.17 47.44 47.30 47.06 46.71 46.18 45.96 45.43 44.42 42.76 42.20 41.15 39.29 39.37 39.67 41.92
55.00 56.58 57.17 58.09 57.75 56.95 55.60 55.15 54.35 53.67 53.22 52.45 52.31 52.50 52.53 51.49 50.75 49.22 48.64 47.25 46.40 45.37 46.44 46.50 45.90 45.86 46.58 47.27 47.26 46.85 46.61 46.62 45.93 45.36 45.29 45.49 45.00 44.90 43.61 41.80 39.37 38.61 40.64
53.23 55.40 56.74 57.93 58.17 57.02 55.39 54.42 53.54 53.11 52.72 52.38 52.37 52.59 52.35 52.15 51.03 49.65 49.24 49.10 47.44 46.21 46.05 45.55 45.32 45.53 46.15 46.35 46.18 45.93 46.41 46.44 45.94 45.07 45.09 45.32 45.49 45.44 44.73 42.68 40.02 36.94 37.80
51.73 53.94 56.00 58.15 58.20 57.22 56.02 54.53 53.77 53.83 52.85 52.45 52.32 51.87 51.47 50.76 49.94 48.87 48.63 48.18 46.64 46.74 45.60 44.84 44.53 44.28 45.05 44.93 44.82 44.94 45.32 45.59 45.39 45.03 44.81 45.00 45.28 45.05 44.90 44.26 42.68 39.42 35.20
49.58 52.56 55.25 57.23 57.87 57.06 56.83 56.01 55.20 54.22 53.78 52.67 52.37 51.99 51.73 51.48 50.69 49.25 48.06 47.12 45.44 45.59 44.84 43.49 43.02 42.96 43.46 43.66 43.66 43.58 44.25 44.27 44.02 44.71 44.34 44.20 44.59 44.31 44.20 44.20 44.29 43.28 39.98
44.39 51.33 54.15 56.82 58.14 57.33 56.54 55.44 55.34 54.80 53.81 52.42 52.15 51.92 51.35 51.65 50.20 48.84 47.61 46.18 43.57 43.94 44.15 43.16 42.40 42.52 42.69 42.92 42.56 42.68 43.27 43.08 43.21 43.57 43.79 43.75 43.85 43.36 43.03 43.20 42.92 42.40 43.31
41.81 47.87 52.05 55.12 56.27 56.28 55.51 54.93 55.31 54.43 54.04 52.74 52.21 52.43 51.89 51.54 49.60 48.10 46.50 44.23 43.76 43.25 43.26 42.66 42.43 42.64 42.73 42.49 42.25 42.23 42.95 42.31 42.33 42.69 42.46 42.52 44.08 41.45 41.53 40.99 40.69 40.47 40.06
38.76 40.79 45.72 50.59 54.64 55.89 55.26 54.66 54.27 54.16 53.99 52.85 52.18 52.22 51.59 50.21 49.44 47.07 44.63 43.67 42.35 41.91 41.98 42.49 42.21 42.00 42.04 41.45 41.65 41.66 41.19 41.17 41.38 40.97 40.91 40.47 40.52 39.21 39.27 39.10 39.45 39.15 40.29
39.67 39.52 39.25 41.69 49.43 53.84 54.80 54.73 53.82 53.52 52.57 52.74 52.26 50.79 50.24 49.92 49.62 46.28 43.70 42.85 42.58 41.72 40.88 41.22 41.15 41.13 40.68 40.41 40.23 39.74 38.99 39.12 39.22 39.84 39.60 39.29 39.19 38.51 37.92 38.53 38.01 38.27 37.30
39.09 39.67 39.30 39.26 40.44 48.38 53.20 53.37 52.50 52.07 52.21 51.56 51.28 51.39 50.72 49.94 46.61 44.45 42.44 41.67 41.38 41.27 40.94 39.63 39.36 39.60 39.86 40.36 39.19 39.04 38.42 38.37 38.27 38.79 38.91 38.61 39.40 41.10 40.31 38.65 37.10 37.09 36.18
38.51 39.35 39.91 40.09 40.36 43.50 46.80 49.03 50.42 50.42 51.34 51.20 50.56 49.24 47.01 46.28 45.61 44.36 42.48 42.07 41.29 41.20 40.73 38.89 38.96 38.32 40.66 43.67 44.02 40.34 38.37 38.31 38.15 36.99 37.05 38.82 41.68 43.05 43.67 42.56 41.60 38.50 34.75
37.12 37.87 38.65 39.63 40.25 41.54 46.00 44.92 44.81 46.14 48.96 47.99 46.68 45.24 45.03 44.41 43.45 43.11 42.34 41.51 40.67 39.83 39.23 38.76 37.95 38.28 39.10 45.31 45.36 43.29 38.46 37.83 37.31 37.04 37.48 38.90 40.65 41.28 39.54 42.85 43.45 42.85 41.81
34.44 35.75 38.21 38.89 39.74 41.44 43.64 43.32 42.53 42.45 42.39 42.48 43.12 44.26 43.43 42.53 42.16 41.78 41.24 40.33 39.54 39.60 37.45 38.60 37.64 38.01 39.52 45.34 45.34 43.45 37.65 37.14 37.08 37.26 37.41 37.02 36.29 36.33 35.95 34.43 33.65 33.85 35.21
34.60 35.93 36.35 38.53 39.30 40.68 41.71 41.63 40.22 39.92 40.35 40.26 41.10 42.25 42.68 41.46 41.00 40.51 40.25 40.13 39.11 37.66 37.81 38.09 36.32 37.55 37.41 44.31 44.47 40.73 36.67 36.44 36.18 37.07 36.83 36.23 34.40 38.26 39.71 34.38 32.94 32.15 32.82
36.62 36.63 36.94 37.22 39.13 39.26 40.10 40.10 38.81 38.46 38.67 38.94 39.42 39.90 40.48 40.25 39.75 40.93 40.16 39.72 39.20 37.91 37.70 35.18 35.94 38.71 36.63 43.67 43.84 39.75 37.22 35.41 35.84 35.89 35.36 39.36 35.66 40.49 39.92 33.63 32.25 29.93 29.83
35.67 35.88 36.13 36.20 36.39 38.76 39.08 38.75 37.60 37.91 39.14 38.50 38.44 38.36 39.50 40.88 40.83 39.85 38.25 37.24 36.76 34.53 33.78 34.07 33.72 35.78 36.56 39.59 43.24 41.32 36.78 36.73 35.21 34.69 33.76 35.27 39.83 40.51 39.79 36.88 32.39 31.34 32.43
36.88 37.07 35.74 36.07 36.53 37.56 38.29 37.70 36.88 38.44 37.73 37.31 37.18 36.91 36.48 37.59 36.71 35.43 33.79 34.07 33.64 32.83 31.41 31.57 30.97 32.16 33.03 39.89 42.55 41.91 39.10 38.51 35.62 34.26 34.39 34.79 40.40 40.02 39.69 38.43 37.81 38.29 37.62
36.87 36.48 35.76 35.57 35.78 36.46 36.84 37.04 37.46 36.95 36.72 36.06 35.66 35.55 35.50 35.47 35.63 34.99 33.35 32.65 33.39 33.67 31.73 32.15 31.79 30.37 31.63 33.25 41.15 42.04 41.14 40.23 34.95 35.29 35.92 37.46 39.95 39.72 38.76 38.65 38.49 38.51 33.84
36.31 36.89 36.44 35.52 35.02 35.86 36.64 36.61 36.93 37.26 36.24 35.55 34.94 34.68 34.56 33.70 33.96 35.31 34.81 33.91 33.25 33.07 32.79 31.94 31.21 31.22 31.70 32.82 36.17 38.61 39.65 40.41 37.08 37.69 37.00 37.52 38.92 38.40 36.49 35.91 35.66 33.65 32.43
35.67 35.82 35.19 35.17 35.41 35.99 36.26 36.33 36.78 37.16 36.35 36.29 35.43 34.86 35.28 35.32 34.13 34.89 34.92 35.20 35.65 36.24 33.78 33.64 33.37 31.69 31.10 32.81 36.37 37.09 36.51 36.60 36.20 34.58 33.10 33.33 33.26 32.91 31.96 31.37 31.42 31.10 30.89
33.80 33.96 34.39 34.68 35.14 35.61 35.74 35.91 35.79 36.06 35.78 35.30 35.26 35.32 35.16 34.49 34.23 33.22 32.60 38.43 37.60 39.35 38.97 38.02 35.63 34.08 36.78 37.65 38.31 38.94 38.83 38.86 38.87 32.45 30.01 30.36 31.29 31.25 30.72 30.24 29.69 29.53 31.20
MSLP
1010.55 1011.87 1012.01 1012.51 1013.15 1014.26 1014.51 1014.79 1015.28 1016.05 1016.65 1017.33 1017.91 1018.37 1018.50 1018.69 1018.92 1019.08 1019.19 1019.29 1019.42 1019.58 1019.84 1020.06 1020.19 1020.41 1020.75 1020.97 1021.12 1021.37 1021.68 1021.92 1021.92 1022.26 1022.67 1022.62 1022.49 1022.48 1022.61 1022.52 1022.50 1022.41 1022.34
1010.89 1010.80 1011.61 1012.00 1012.74 1013.64 1014.64 1014.72 1014.86 1015.58 1016.20 1016.50 1016.99 1017.27 1017.81 1018.32 1018.48 1018.76 1019.06 1019.16 1019.33 1019.53 1019.78 1019.97 1020.17 1020.33 1020.71 1020.99 1021.12 1021.29 1021.83 1022.01 1022.02 1022.46 1022.95 1023.25 1023.09 1022.87 1022.83 1022.75 1022.75 1022.75 1022.61
1010.07 1010.62 1011.02 1011.35 1012.13 1012.53 1014.10 1014.73 1014.39 1014.97 1015.54 1015.97 1016.73 1017.15 1017.81 1018.22 1018.61 1018.87 1019.01 1019.07 1019.14 1019.39 1019.60 1019.81 1020.02 1020.29 1020.56 1020.90 1021.05 1021.22 1021.56 1022.06 1022.19 1022.11 1022.46 1023.30 1023.53 1023.54 1023.23 1023.21 1023.13 1023.04 1022.94
1009.37 1009.55 1010.02 1011.11 1011.68 1012.41 1012.71 1013.81 1014.04 1014.52 1014.97 1015.43 1016.04 1016.36 1016.65 1017.35 1017.47 1017.92 1018.60 1018.83 1018.99 1019.30 1019.51 1019.67 1019.88 1020.17 1020.43 1020.73 1020.90 1021.12 1021.42 1021.71 1022.15 1022.29 1022.29 1022.51 1022.94 1023.62 1023.97 1023.69 1023.47 1023.28 1023.22
1008.60 1008.75 1009.28 1010.04 1010.95 1011.61 1012.01 1012.75 1013.62 1014.33 1014.67 1014.85 1015.33 1015.74 1016.38 1016.65 1016.94 1017.69 1018.43 1018.68 1018.93 1019.16 1019.34 1019.58 1019.86 1020.08 1020.35 1020.60 1020.81 1021.07 1021.39 1021.63 1022.02 1022.14 1022.44 1022.74 1022.97 1023.17 1023.66 1024.08 1024.01 1023.69 1023.58
1007.59 1008.18 1008.71 1009.59 1010.25 1011.09 1011.77 1012.46 1012.80 1013.68 1014.39 1014.52 1014.79 1015.07 1015.56 1016.14 1016.82 1017.74 1018.37 1018.50 1018.75 1019.23 1019.25 1019.42 1019.80 1020.06 1020.25 1020.59 1020.76 1020.96 1021.29 1021.62 1021.84 1022.04 1022.20 1022.49 1022.89 1023.24 1023.52 1024.03 1024.40 1024.48 1024.26
1006.88 1007.15 1008.03 1008.66 1009.56 1010.47 1011.13 1011.99 1012.35 1012.23 1013.61 1013.92 1014.33 1014.38 1014.67 1015.39 1015.91 1016.95 1017.62 1018.11 1018.54 1018.99 1019.15 1019.34 1019.74 1020.02 1020.14 1020.24 1020.59 1020.98 1021.18 1021.45 1021.74 1021.96 1022.25 1022.35 1022.58 1022.74 1023.23 1023.64 1024.25 1024.51 1024.47
1006.70 1006.80 1006.98 1007.40 1008.28 1009.00 1009.83 1010.49 1011.30 1011.76 1012.50 1012.58 1013.30 1013.92 1014.10 1014.65 1015.23 1016.06 1016.79 1017.17 1017.73 1018.23 1018.67 1019.16 1019.53 1019.79 1020.00 1020.20 1020.36 1020.78 1021.02 1021.15 1021.55 1021.89 1022.14 1022.41 1022.53 1022.55 1022.90 1023.33 1023.92 1024.70 1024.61
1005.84 1005.86 1006.11 1006.55 1006.84 1007.93 1008.77 1009.53 1010.37 1010.99 1011.63 1011.86 1012.58 1013.29 1013.74 1013.99 1014.49 1015.50 1016.07 1016.66 1017.12 1017.76 1018.34 1018.82 1019.23 1019.69 1019.93 1020.14 1020.32 1020.60 1020.90 1021.08 1021.45 1021.80 1022.08 1022.29 1022.48 1022.54 1022.74 1023.01 1023.39 1024.12 1024.69
1005.71 1005.81 1005.56 1005.96 1006.37 1006.77 1007.39 1008.55 1009.34 1009.71 1010.35 1010.87 1011.09 1011.98 1012.96 1013.65 1014.01 1015.02 1015.50 1016.02 1016.69 1017.31 1017.90 1018.68 1018.92 1019.46 1019.91 1020.14 1020.29 1020.47 1020.74 1021.14 1021.41 1021.70 1021.97 1022.26 1022.37 1022.56 1022.76 1022.96 1023.20 1023.67 1024.12
1005.24 1005.05 1005.26 1005.33 1005.95 1006.58 1007.42 1007.97 1008.80 1009.29 1009.85 1010.56 1010.76 1011.29 1011.83 1012.85 1013.40 1014.33 1014.62 1015.42 1016.32 1016.96 1017.58 1018.21 1018.57 1019.08 1019.71 1020.10 1020.31 1020.45 1020.75 1020.92 1021.30 1021.58 1021.83 1022.17 1022.33 1022.61 1022.78 1023.03 1023.30 1023.71 1023.97
1004.95 1005.19 1004.86 1004.86 1005.44 1005.84 1006.67 1007.31 1008.09 1008.89 1009.33 1009.88 1010.29 1011.09 1011.62 1012.20 1013.31 1013.56 1013.97 1014.88 1015.74 1016.45 1017.08 1017.78 1018.47 1018.90 1019.34 1019.97 1020.17 1020.36 1020.57 1020.96 1021.17 1021.62 1021.86 1022.15 1022.40 1022.71 1022.90 1023.11 1023.37 1023.72 1024.02
1005.39 1005.32 1005.48 1005.33 1005.17 1005.48 1005.87 1006.46 1007.05 1007.43 1008.20 1009.23 1009.65 1010.45 1011.05 1011.58 1012.23 1012.93 1013.65 1014.48 1015.27 1016.09 1016.84 1017.35 1018.16 1018.66 1018.91 1019.80 1020.06 1020.11 1020.45 1020.91 1020.98 1021.46 1021.88 1022.13 1022.39 1022.84 1022.97 1023.27 1023.45 1023.75 1024.10
1005.50 1005.74 1005.89 1005.70 1005.60 1005.58 1005.82 1006.01 1006.38 1006.96 1007.79 1008.54 1009.03 1009.46 1009.93 1010.34 1011.21 1012.25 1013.18 1014.07 1014.84 1015.68 1016.38 1017.23 1017.84 1018.46 1018.69 1019.34 1019.84 1020.08 1020.38 1020.84 1021.11 1021.36 1021.84 1022.10 1022.36 1022.62 1022.86 1023.23 1023.59 1023.83 1024.40
1005.44 1005.43 1005.71 1005.80 1005.83 1005.72 1005.82 1006.03 1006.38 1007.09 1007.60 1008.14 1008.97 1009.63 1010.38 1010.81 1011.46 1012.33 1013.25 1013.98 1014.67 1015.30 1016.02 1016.92 1017.58 1018.14 1018.65 1019.01 1019.46 1019.88 1020.28 1020.83 1021.18 1021.51 1021.85 1022.16 1022.39 1022.57 1022.83 1022.96 1023.57 1023.81 1024.33
1005.18 1005.25 1005.38 1005.54 1005.77 1005.77 1005.81 1005.95 1006.35 1007.15 1007.68 1008.31 1008.86 1009.48 1010.17 1011.04 1011.50 1012.29 1012.96 1013.64 1014.42 1015.11 1016.03 1016.83 1017.33 1017.71 1018.32 1018.53 1018.84 1019.46 1020.11 1020.73 1021.17 1021.64 1021.95 1022.19 1022.28 1022.40 1022.65 1022.82 1023.21 1023.51 1023.99
1005.16 1005.31 1005.20 1005.48 1005.49 1005.48 1005.89 1006.23 1006.56 1006.94 1007.59 1008.01 1008.65 1009.42 1010.00 1010.76 1011.36 1012.01 1012.60 1013.42 1014.20 1015.11 1015.94 1016.40 1017.12 1017.51 1017.62 1018.12 1018.57 1019.13 1019.75 1020.53 1021.05 1021.43 1021.86 1022.15 1022.41 1022.52 1022.95 1022.80 1023.14 1023.33 1023.62
1005.13 1005.33 1005.47 1005.44 1005.65 1005.70 1005.95 1006.21 1006.76 1007.18 1007.64 1008.12 1008.63 1009.16 1009.79 1010.58 1011.21 1011.87 1012.50 1013.26 1014.13 1014.67 1015.39 1016.15 1016.13 1017.56 1017.42 1017.87 1018.34 1018.98 1019.56 1020.25 1020.84 1021.23 1021.64 1021.94 1022.32 1022.70 1022.88 1023.06 1023.32 1023.70 1023.89
1005.44 1005.43 1005.44 1005.45 1005.80 1005.88 1005.99 1006.67 1007.36 1007.72 1008.02 1008.36 1008.74 1009.12 1009.38 1010.07 1010.72 1011.56 1012.18 1013.06 1013.97 1014.73 1015.11 1015.80 1016.55 1017.04 1017.52 1017.66 1018.16 1018.73 1019.50 1020.15 1020.71 1021.14 1021.49 1021.78 1022.13 1022.41 1022.66 1023.05 1023.57 1024.00 1024.21
1005.88 1005.78 1005.57 1005.61 1005.88 1006.18 1006.28 1006.76 1007.46 1008.10 1008.47 1008.64 1008.74 1009.05 1009.52 1009.97 1010.53 1011.07 1011.67 1012.43 1013.50 1014.10 1015.06 1015.81 1016.27 1016.95 1017.30 1017.55 1017.94 1018.48 1019.39 1020.13 1020.73 1021.13 1021.37 1021.58 1021.86 1022.06 1022.43 1022.97 1023.50 1023.94 1024.19
1006.26 1006.27 1006.36 1006.34 1006.33 1006.32 1006.72 1007.22 1007.50 1007.65 1007.76 1008.38 1008.88 1009.28 1009.63 1010.07 1010.57 1011.19 1011.84 1012.50 1013.42 1014.27 1015.04 1015.53 1016.38 1016.81 1017.01 1017.36 1017.70 1018.34 1018.97 1019.59 1020.39 1020.86 1021.22 1021.35 1021.54 1021.81 1022.31 1022.90 1023.17 1023.49 1023.91
1006.38 1006.57 1006.89 1007.02 1007.05 1006.92 1007.10 1007.49 1007.83 1007.74 1008.08 1008.49 1008.97 1009.38 1009.81 1010.23 1010.77 1011.32 1012.12 1012.84 1013.49 1014.03 1014.82 1015.81 1016.51 1016.78 1016.89 1017.14 1017.56 1018.04 1018.62 1019.15 1019.75 1020.27 1020.65 1020.90 1021.24 1021.58 1022.03 1022.42 1022.78 1023.09 1023.38
1006.91 1007.16 1007.34 1007.44 1007.48 1007.51 1007.58 1007.78 1007.88 1008.08 1008.34 1008.72 1009.06 1009.46 1009.93 1010.35 1010.68 1011.23 1011.89 1012.67 1013.15 1013.78 1014.67 1015.41 1015.98 1016.32 1016.71 1017.04 1017.33 1017.78 1018.29 1018.82 1019.33 1019.65 1019.99 1020.47 1020.97 1021.35 1021.66 1021.97 1022.34 1022.58 1023.06
1007.83 1007.89 1007.92 1007.97 1007.89 1007.76 1007.79 1007.97 1007.93 1007.98 1008.34 1008.63 1008.96 1009.41 1009.89 1010.42 1010.83 1011.20 1011.72 1012.31 1012.88 1013.46 1014.06 1014.68 1015.17 1015.70 1016.28 1016.70 1017.11 1017.56 1018.07 1018.49 1018.97 1019.31 1019.72 1020.13 1020.60 1021.03 1021.42 1021.83 1022.02 1022.33 1022.71
1008.93 1008.84 1008.81 1008.59 1008.54 1008.37 1008.26 1008.23 1008.14 1008.17 1008.47 1008.63 1008.98 1009.42 1009.77 1010.27 1010.73 1010.99 1011.26 1011.62 1011.94 1012.27 1012.89 1013.51 1014.22 1014.88 1015.45 1015.56 1016.07 1016.84 1017.62 1018.07 1018.51 1019.31 1019.92 1020.32 1020.49 1021.08 1021.46 1021.70 1021.84 1022.14 1022.44
1009.87 1009.52 1009.29 1009.10 1008.95 1008.56 1008.62 1008.67 1008.55 1008.49 1008.70 1008.79 1009.04 1009.38 1009.71 1010.13 1010.52 1010.89 1011.26 1011.42 1011.65 1012.06 1012.52 1013.03 1013.56 1014.19 1014.61 1015.22 1015.96 1016.60 1016.90 1017.74 1018.37 1019.21 1019.66 1020.28 1020.54 1020.69 1021.02 1021.38 1021.62 1021.82 1022.00
Wind_Speed
23 19 15 9 8 5 13 13 13 9 9 5 5 3 4 3 3 4 6 6 5 5 5 4 4 3 4 3 2 3 3 3 2 3 3 2 3 3 2 2 2 4 3
16 19 18 15 12 13 11 12 14 13 10 8 5 3 5 2 2 3 5 6 6 6 5 5 4 4 4 3 3 3 2 2 2 3 2 2 3 3 3 3 3 3 3
19 18 18 16 14 14 14 14 15 15 13 10 5 4 4 3 2 2 3 4 6 6 5 6 5 5 4 4 3 3 4 3 2 3 4 3 2 1 3 4 3 4 3
20 21 19 17 17 19 18 16 14 15 13 13 11 10 11 6 5 4 3 5 6 6 6 6 5 5 4 4 4 3 3 3 3 1 3 3 4 3 0 2 2 4 4
17 18 20 20 19 16 17 17 11 10 12 14 13 10 9 4 3 4 6 6 5 6 6 6 6 5 4 4 5 4 4 2 3 2 2 2 3 2 3 1 3 3 3
13 16 17 18 19 16 17 15 15 13 11 13 13 14 14 10 6 6 6 5 4 4 6 6 5 5 5 5 4 4 5 3 3 2 2 3 3 2 2 2 0 0 3
16 14 18 19 18 18 17 16 18 21 17 15 14 15 14 12 12 10 7 7 4 4 6 6 5 4 5 6 5 5 5 5 3 4 2 2 2 3 3 3 2 1 1
11 15 18 19 21 20 18 17 18 18 21 19 18 14 13 8 8 9 7 8 7 6 6 6 6 6 6 5 5 4 4 5 4 5 3 2 2 2 3 4 4 1 1
16 16 15 17 21 21 22 22 21 20 18 18 14 13 11 11 10 10 8 6 6 6 7 7 7 6 6 6 6 4 5 5 5 5 5 3 2 3 3 3 3 4 2
9 11 14 15 16 20 22 22 21 22 20 19 19 15 14 11 10 9 10 9 7 7 9 7 7 7 6 6 6 5 4 6 3 4 5 3 3 3 3 3 2 2 3
8 10 11 13 14 15 16 17 18 19 17 16 15 14 14 12 10 11 9 9 7 8 9 8 8 7 7 6 6 6 6 6 6 4 6 5 4 3 3 2 2 2 1
6 5 7 10 10 12 13 16 17 17 16 14 14 13 12 12 11 11 11 10 11 9 10 8 7 7 7 6 7 6 6 7 7 6 6 6 3 4 3 3 4 3 1
2 1 2 5 8 12 13 14 14 16 15 14 14 13 13 13 14 12 11 11 10 10 8 9 9 8 7 7 6 6 7 6 6 6 6 6 6 5 3 3 4 3 2
5 3 3 5 6 5 10 13 14 13 12 13 15 16 16 16 14 11 11 11 10 11 8 8 8 7 7 7 7 6 6 6 6 6 6 6 6 7 6 5 5 4 4
7 6 4 5 5 6 6 6 7 8 10 12 12 12 7 8 8 9 9 9 9 9 9 8 7 7 7 6 7 7 7 7 6 6 5 5 6 8 7 5 4 5 4
8 7 6 6 6 6 6 5 7 7 8 9 10 8 9 9 10 11 11 11 10 10 10 8 9 8 7 12 14 10 7 7 7 7 5 5 8 8 10 10 9 7 6
6 6 6 6 6 7 6 6 7 7 10 10 9 10 11 11 10 10 10 10 11 9 10 9 8 10 8 15 15 15 7 7 7 7 7 5 4 6 5 7 8 6 7
3 4 4 2 4 2 4 6 7 6 7 7 8 9 10 10 9 10 10 10 9 11 10 10 11 7 6 15 15 15 7 6 7 7 7 7 6 6 6 6 5 4 3
2 1 1 1 2 3 6 6 5 5 6 7 8 9 11 12 13 13 12 10 9 8 9 8 8 9 6 14 15 12 7 6 7 6 6 7 7 10 11 6 6 4 3
1 3 4 3 2 1 5 7 7 6 7 6 6 6 7 9 11 12 13 10 9 8 7 6 7 10 8 15 16 12 6 6 5 5 5 13 9 13 12 6 6 6 4
5 5 6 5 4 2 4 4 5 7 7 6 6 6 6 8 8 7 6 8 8 7 6 7 6 7 8 9 16 17 7 7 6 6 5 4 14 13 12 9 5 5 5
6 7 6 6 6 6 3 3 6 4 5 6 6 6 7 6 6 8 6 7 7 7 6 6 5 4 5 12 15 17 13 12 8 8 5 6 14 13 13 10 9 8 7
6 5 6 6 6 6 4 1 4 5 6 6 7 6 6 5 7 9 8 6 8 8 8 8 7 5 5 5 15 17 17 15 7 6 9 13 15 15 11 12 10 9 4
8 6 7 7 7 7 5 2 4 3 5 6 6 6 6 6 6 5 6 7 8 7 8 8 7 6 6 6 6 7 8 11 8 10 8 11 11 11 8 6 6 4 4
7 6 5 5 5 5 5 5 6 3 3 4 4 5 5 7 6 6 8 8 8 10 9 8 7 8 8 11 14 13 8 7 8 6 3 2 4 5 4 3 4 4 4
7 8 8 8 8 7 7 6 5 3 2 2 3 4 4 4 4 4 3 2 6 11 10 11 10 6 7 12 17 15 16 16 16 4 4 4 5 6 6 5 4 4 7
Wind_Direction
192 192 191 145 142 188 173 181 160 168 154 155 151 152 178 167 173 182 180 172 166 158 150 150 143 131 125 143 136 111 107 45 55 94 33 9 27 42 37 37 41 32 15
189 197 195 178 167 173 206 187 179 170 177 171 174 147 156 158 153 172 183 179 174 170 161 158 158 149 127 129 107 116 116 92 40 122 97 70 348 6 5 18 13 18 2
186 189 186 177 189 182 191 210 183 179 182 174 146 107 84 74 118 201 194 196 177 174 163 167 160 154 142 158 154 132 128 143 43 80 137 105 189 4 341 22 16 11 24
201 193 195 184 187 195 170 208 192 186 184 173 177 174 184 170 192 167 172 179 179 177 172 169 165 162 154 155 163 152 137 123 137 69 64 82 135 148 41 353 341 9 43
196 205 193 191 194 183 187 192 202 194 195 182 185 181 185 176 131 140 173 178 179 184 178 173 168 163 162 166 160 148 143 128 136 141 127 86 71 97 128 189 323 2 359
205 196 189 181 193 188 181 188 184 202 205 193 190 188 190 177 151 167 184 179 170 189 186 175 171 174 167 169 171 157 151 152 131 127 131 147 153 171 131 115 119 276 338
199 197 179 185 183 186 187 194 196 191 201 196 197 194 188 183 177 181 184 170 161 186 197 173 172 174 182 171 159 157 159 163 154 156 157 142 156 135 122 113 136 127 306
211 211 192 186 189 192 190 188 193 199 197 195 198 200 191 184 182 178 182 182 183 180 168 175 175 185 179 172 162 159 170 160 159 161 158 150 165 141 146 148 136 48 327
222 209 206 204 189 193 198 197 198 203 200 197 193 197 195 178 179 179 178 176 169 171 168 173 169 182 179 179 170 169 175 160 161 172 167 156 176 146 149 136 134 149 174
228 223 213 197 203 196 196 198 201 199 199 197 189 192 195 193 184 175 182 173 169 163 161 171 167 171 186 186 176 171 167 164 170 164 163 169 163 168 153 147 146 148 155
230 211 205 210 199 195 195 198 201 199 197 201 200 189 189 190 178 184 178 172 159 166 167 170 165 170 182 189 180 177 170 166 169 159 168 176 156 155 143 135 147 164 157
287 247 224 196 185 188 187 192 193 197 200 194 185 197 195 181 189 186 174 164 170 166 164 160 167 172 177 184 179 177 166 169 166 174 157 163 146 138 132 137 141 146 133
325 33 160 227 214 195 189 192 190 193 189 192 187 192 194 187 191 187 167 163 157 162 161 162 173 178 170 178 186 169 164 173 162 162 162 160 147 139 136 137 135 124 110
253 228 222 221 228 222 205 196 193 193 189 191 194 189 190 190 190 172 162 164 164 161 161 170 169 173 162 168 171 162 156 153 155 152 155 158 161 155 150 143 143 125 119
236 223 219 230 229 227 200 185 183 188 185 183 188 209 205 185 163 159 159 152 158 165 163 160 162 162 165 173 168 161 156 152 145 143 143 149 157 159 159 141 148 135 125
241 227 227 207 225 222 214 181 172 165 171 188 193 163 152 165 169 168 163 160 165 162 162 167 168 164 179 178 170 158 154 155 150 152 149 148 144 143 145 142 147 151 144
255 253 235 227 211 197 194 190 173 153 174 172 164 163 165 173 170 162 158 163 165 155 170 167 169 183 177 175 167 162 153 155 160 154 154 153 159 144 147 151 153 155 149
326 317 295 265 261 186 180 144 150 158 153 153 155 159 157 157 153 157 165 161 163 177 175 187 164 181 181 173 166 160 151 155 165 164 164 155 158 169 155 138 131 127 119
164 162 298 224 285 181 142 136 132 140 148 160 164 169 165 162 163 172 171 170 172 178 183 175 164 169 186 171 166 151 149 155 168 168 166 162 163 180 165 147 148 148 130
359 22 15 35 55 96 141 136 150 159 182 177 173 157 165 171 179 181 174 166 178 175 170 162 172 182 178 180 172 153 152 153 160 166 173 178 169 175 168 155 160 164 190
61 30 32 53 43 92 137 171 161 196 196 162 155 161 173 179 183 160 153 150 160 140 158 160 166 182 176 185 177 170 165 170 166 174 177 177 179 177 174 168 165 179 162
52 40 32 20 11 34 136 189 207 228 162 161 169 173 167 160 147 147 136 143 148 151 155 161 173 186 175 183 188 184 181 174 173 182 173 175 179 177 182 176 186 191 188
45 40 40 20 18 21 35 265 263 186 181 168 179 176 170 162 160 160 158 154 164 173 178 185 189 185 177 187 194 194 192 188 179 170 175 177 184 182 185 190 201 203 174
23 16 21 20 12 3 2 351 336 251 190 190 182 169 167 161 160 161 168 171 180 181 181 186 190 176 174 183 186 191 194 195 181 174 182 183 183 180 179 198 217 184 184
17 17 17 17 10 1 6 5 357 7 221 196 172 172 166 174 172 182 179 189 197 191 184 192 182 175 189 199 181 179 188 183 170 136 106 152 154 174 189 196 201 204 197
13 17 16 12 360 12 20 8 3 358 252 198 162 168 159 158 164 159 141 204 162 183 185 173 181 197 201 177 191 197 181 186 176 139 156 182 195 197 197 203 208 205 215